• In India
  • List of Countries
  • For 7 days
  • Water Temperature
  • Satellite Maps
  • Weather Map
  • Weather Widgets
  • user-avatar
    Login

    Hourly Weather Czorsztyn-Kluszkowce

    Today, 21 January, Sunday

    Time Temperature Precipitation Wind Pressure Humidity
    00:00 -7°C° 0.1 mm 1 mps 666 mmHg 91%
    01:00 -7°C° 0 mm 1 mps 665 mmHg 92%
    02:00 -6°C° 0.1 mm 1 mps 665 mmHg 92%
    03:00 -6°C° 0.1 mm 1 mps 665 mmHg 91%
    04:00 -6°C° 0.1 mm 1 mps 665 mmHg 91%
    05:00 -6°C° 0.1 mm 1 mps 665 mmHg 92%
    06:00 -6°C° 0.1 mm 1 mps 665 mmHg 92%
    07:00 -6°C° 0 mm 1 mps 665 mmHg 93%
    08:00 -4°C° 0.2 mm 1 mps 665 mmHg 91%
    09:00 -4°C° 0.2 mm 1 mps 666 mmHg 89%
    10:00 -3°C° 0.2 mm 1 mps 666 mmHg 87%
    11:00 -3°C° 0.2 mm 1 mps 666 mmHg 86%
    12:00 -3°C° 0.2 mm 1 mps 667 mmHg 85%
    13:00 -2°C° 0.2 mm 1 mps 667 mmHg 85%
    14:00 -3°C° 0.2 mm 1 mps 667 mmHg 87%
    15:00 -3°C° 0.2 mm 1 mps 668 mmHg 90%
    16:00 -5°C° 0.2 mm 2 mps 668 mmHg 93%
    17:00 -6°C° 0.2 mm 2 mps 669 mmHg 94%
    18:00 -6°C° 0.2 mm 2 mps 669 mmHg 94%
    19:00 -6°C° 0.2 mm 2 mps 669 mmHg 94%
    20:00 -8°C° 0.3 mm 3 mps 670 mmHg 94%
    21:00 -8°C° 0.3 mm 3 mps 670 mmHg 93%
    22:00 -8°C° 0.3 mm 3 mps 671 mmHg 92%
    23:00 -8°C° 0.2 mm 3 mps 671 mmHg 92%

    Tomorrow, 22 January, Monday

    Time Temperature Precipitation Wind Pressure Humidity
    00:00 -9°C° 0.2 mm 3 mps 671 mmHg 92%
    01:00 -9°C° 0.2 mm 3 mps 672 mmHg 92%
    02:00 -9°C° 0.1 mm 3 mps 672 mmHg 92%
    03:00 -9°C° 0.1 mm 3 mps 672 mmHg 93%
    04:00 -9°C° 0.1 mm 2 mps 672 mmHg 93%
    05:00 -9°C° 0 mm 2 mps 672 mmHg 93%
    06:00 -9°C° 0 mm 2 mps 672 mmHg 93%
    07:00 -10°C° 0 mm 2 mps 672 mmHg 94%
    08:00 -9°C° 0 mm 2 mps 673 mmHg 90%
    09:00 -7°C° 0 mm 1 mps 673 mmHg 86%
    10:00 -7°C° 0 mm 1 mps 674 mmHg 83%
    11:00 -6°C° 0 mm 1 mps 673 mmHg 80%
    12:00 -4°C° 0 mm 1 mps 673 mmHg 77%
    13:00 -4°C° 0 mm 1 mps 673 mmHg 73%
    14:00 -6°C° 0 mm 1 mps 673 mmHg 77%
    15:00 -7°C° 0 mm 1 mps 673 mmHg 81%
    16:00 -8°C° 0 mm 1 mps 673 mmHg 85%
    17:00 -8°C° 0 mm 1 mps 673 mmHg 87%
    18:00 -9°C° 0 mm 1 mps 673 mmHg 88%
    19:00 -10°C° 0 mm 1 mps 673 mmHg 89%
    20:00 -10°C° 0 mm 1 mps 673 mmHg 88%
    21:00 -10°C° 0 mm 1 mps 673 mmHg 87%
    22:00 -10°C° 0 mm 1 mps 673 mmHg 87%
    23:00 -10°C° 0 mm 1 mps 674 mmHg 85%

    Day after tomorrow, 23 January, Tuesday

    Time Temperature Precipitation Wind Pressure Humidity
    00:00 -10°C° 0 mm 1 mps 674 mmHg 84%
    01:00 -10°C° 0 mm 1 mps 674 mmHg 83%
    02:00 -10°C° 0 mm 1 mps 674 mmHg 82%
    03:00 -10°C° 0 mm 1 mps 674 mmHg 80%
    04:00 -9°C° 0 mm 1 mps 674 mmHg 79%
    05:00 -9°C° 0 mm 1 mps 675 mmHg 80%
    06:00 -9°C° 0 mm 1 mps 675 mmHg 80%
    07:00 -8°C° 0 mm 1 mps 675 mmHg 80%
    08:00 -7°C° 0.1 mm 1 mps 676 mmHg 80%
    09:00 -6°C° 0.1 mm 1 mps 677 mmHg 80%
    10:00 -4°C° 0.1 mm 1 mps 678 mmHg 80%
    11:00 -4°C° 0.1 mm 1 mps 678 mmHg 79%
    12:00 -3°C° 0.1 mm 1 mps 678 mmHg 79%
    13:00 -2°C° 0.1 mm 1 mps 679 mmHg 78%
    14:00 -3°C° 0 mm 1 mps 679 mmHg 82%
    15:00 -3°C° 0 mm 1 mps 679 mmHg 85%
    16:00 -4°C° 0 mm 1 mps 679 mmHg 89%
    17:00 -4°C° 0 mm 1 mps 680 mmHg 90%
    18:00 -6°C° 0 mm 1 mps 680 mmHg 91%
    19:00 -6°C° 0 mm 1 mps 680 mmHg 92%
    20:00 -7°C° 0 mm 1 mps 680 mmHg 92%
    21:00 -7°C° 0 mm 1 mps 681 mmHg 92%
    22:00 -7°C° 0 mm 1 mps 681 mmHg 92%
    23:00 -7°C° 0 mm 1 mps 681 mmHg 92%

    24 January, Wednesday

    Time Temperature Precipitation Wind Pressure Humidity
    00:00 -8°C° 0 mm 2 mps 681 mmHg 93%
    01:00 -8°C° 0 mm 2 mps 681 mmHg 93%
    02:00 -8°C° 0 mm 2 mps 681 mmHg 93%
    03:00 -8°C° 0 mm 2 mps 681 mmHg 93%
    04:00 -8°C° 0 mm 2 mps 681 mmHg 92%
    05:00 -8°C° 0 mm 2 mps 681 mmHg 92%
    06:00 -8°C° 0 mm 2 mps 682 mmHg 92%
    07:00 -7°C° 0 mm 2 mps 682 mmHg 92%
    08:00 -6°C° 0 mm 2 mps 682 mmHg 90%
    09:00 -6°C° 0 mm 3 mps 683 mmHg 87%
    10:00 -5°C° 0 mm 3 mps 683 mmHg 85%
    11:00 -4°C° 0 mm 3 mps 683 mmHg 85%
    12:00 -4°C° 0 mm 3 mps 683 mmHg 85%
    13:00 -2°C° 0 mm 3 mps 683 mmHg 85%
    14:00 -2°C° 0 mm 3 mps 683 mmHg 87%
    15:00 -4°C° 0 mm 3 mps 683 mmHg 88%
    16:00 -4°C° 0 mm 3 mps 682 mmHg 90%
    17:00 -5°C° 0 mm 3 mps 682 mmHg 91%
    18:00 -5°C° 0 mm 3 mps 682 mmHg 91%
    19:00 -5°C° 0 mm 3 mps 682 mmHg 92%
    20:00 -6°C° 0 mm 3 mps 682 mmHg 92%
    21:00 -6°C° 0 mm 3 mps 682 mmHg 92%
    22:00 -6°C° 0 mm 3 mps 682 mmHg 92%
    23:00 -6°C° 0 mm 3 mps 682 mmHg 92%

    25 January, Thursday

    Time Temperature Precipitation Wind Pressure Humidity
    00:00 -6°C° 0 mm 3 mps 681 mmHg 91%
    01:00 -6°C° 0 mm 3 mps 681 mmHg 91%
    02:00 -6°C° 0 mm 3 mps 681 mmHg 91%
    03:00 -6°C° 0 mm 3 mps 680 mmHg 90%
    04:00 -6°C° 0 mm 3 mps 680 mmHg 89%
    05:00 -6°C° 0 mm 3 mps 680 mmHg 88%
    06:00 -6°C° 0 mm 3 mps 680 mmHg 88%
    07:00 -6°C° 0 mm 3 mps 680 mmHg 87%
    08:00 -5°C° 0 mm 3 mps 680 mmHg 84%
    09:00 -4°C° 0 mm 3 mps 680 mmHg 81%
    10:00 -2°C° 0 mm 3 mps 680 mmHg 79%
    11:00 -2°C° 0 mm 3 mps 680 mmHg 78%
    12:00 -1°C° 0 mm 3 mps 679 mmHg 77%
    13:00 0°C° 0 mm 3 mps 679 mmHg 77%
    14:00 -1°C° 0 mm 3 mps 679 mmHg 78%
    15:00 -2°C° 0 mm 3 mps 678 mmHg 80%
    16:00 -3°C° 0 mm 2 mps 678 mmHg 81%
    17:00 -4°C° 0 mm 2 mps 677 mmHg 81%
    18:00 -4°C° 0 mm 2 mps 677 mmHg 82%
    19:00 -5°C° 0 mm 2 mps 677 mmHg 82%
    20:00 -5°C° 0 mm 2 mps 677 mmHg 83%
    21:00 -5°C° 0 mm 2 mps 676 mmHg 83%
    22:00 -5°C° 0 mm 2 mps 676 mmHg 84%
    23:00 -5°C° 0 mm 2 mps 676 mmHg 85%

    26 January, Friday

    Time Temperature Precipitation Wind Pressure Humidity
    00:00 -4°C° 0 mm 2 mps 676 mmHg 86%
    01:00 -4°C° 0 mm 2 mps 676 mmHg 87%
    02:00 -4°C° 0 mm 2 mps 675 mmHg 87%
    03:00 -4°C° 0 mm 2 mps 675 mmHg 87%
    04:00 -4°C° 0 mm 2 mps 675 mmHg 87%
    05:00 -4°C° 0 mm 2 mps 675 mmHg 88%
    06:00 -4°C° 0 mm 2 mps 674 mmHg 88%
    07:00 -4°C° 0 mm 2 mps 674 mmHg 88%
    08:00 -3°C° 0 mm 2 mps 674 mmHg 87%
    09:00 -3°C° 0 mm 2 mps 675 mmHg 86%
    10:00 -2°C° 0 mm 2 mps 675 mmHg 85%
    11:00 -1°C° 0 mm 2 mps 675 mmHg 85%
    12:00 -1°C° 0 mm 2 mps 675 mmHg 85%
    13:00 -1°C° 0 mm 2 mps 675 mmHg 85%
    14:00 -1°C° 0 mm 2 mps 674 mmHg 86%
    15:00 -2°C° 0 mm 2 mps 674 mmHg 87%
    16:00 -2°C° 0 mm 2 mps 674 mmHg 88%
    17:00 -2°C° 0 mm 2 mps 674 mmHg 88%
    18:00 -2°C° 0 mm 2 mps 674 mmHg 87%
    19:00 -3°C° 0 mm 2 mps 675 mmHg 87%
    20:00 -3°C° 0 mm 2 mps 675 mmHg 87%
    21:00 -3°C° 0 mm 2 mps 675 mmHg 87%
    22:00 -3°C° 0 mm 2 mps 675 mmHg 86%
    23:00 -3°C° 0 mm 2 mps 675 mmHg 87%
    Show more